Location: Newark
(42.1667°N, 14.5667°E)
Time: 00:30:46
(UTC+00:00)

Envisat - Pass Details

Date: 31 January 2020
Orbit: 764 x 766 km, 98.1° (Epoch: 24 February)

Event Time Altitude Azimuth Distance (km) Brightness Sun altitude
Rises 04:10:44 0° 36° (NE) 3,239 6.7 -23.5°
Reaches altitude 10° 04:15:13 10° 74° (ENE) 2,304 6.4 -22.6°
Maximum altitude 04:16:25 11° 88° (E) 2,249 6.5 -22.4°
Drops below altitude 10° 04:17:36 10° 101° (ESE) 2,300 6.6 -22.2°
Sets 04:22:03 0° 138° (SE) 3,218 6.9 -21.4°
